Location: Unspecified
(0.0000°N, 0.0000°E)
Time: 13:44:55
(UTC+00:00)

Transit 2A Rocket - Pass Details

Date: 25 November 2019
Orbit: 594 x 909 km, 66.7° (Epoch: 08 December)

Event Time Altitude Azimuth Distance (km) Brightness Sun altitude
Rises 07:17:31 0° 317° (NW) 3,037 7.6 21.1°
Reaches altitude 10° 07:20:04 10° 304° (NW) 2,176 6.9 21.7°
Maximum altitude 07:24:10 26° 248° (WSW) 1,451 6.2 22.7°
Drops below altitude 10° 07:28:36 10° 193° (SSW) 2,359 7.7 23.7°
Sets 07:31:31 0° 180° (S) 3,349 8.6 24.4°
